This demonstration page uses our WeatherBlox Daily Observations layout. Learn more.

Left ArrowRight Arrow

41.86663, -103.66717

Hourly Observations for August 18, 2020

Temp ( °F °C ) Dew Point ( °F °C ) Humidity (%) Winds ( mph kmh ) Pressure ( in mb ) Visibility ( mi km ) Precip ( " mm )
12:53 am 00:53 Clear 67 19.4 57 13.9 71 71 E 9 15 30.03 1017 10 16.0934 0 0
1:53 am 01:53 Clear 65 18.3 57 13.9 76 76 E 6 9 30.02 1017 10 16.0934 0 0
2:53 am 02:53 Clear 63 17.2 56 13.3 78 78 E 5 7 30.01 1016 10 16.0934 0 0
3:53 am 03:53 Clear 62 16.7 55 12.8 78 78 E 3 6 30.01 1016 10 16.0934 0 0
4:53 am 04:53 Clear 60 15.6 56 13.3 86 86 E 3 6 29.99 1016 10 16.0934 0 0
5:53 am 05:53 Clear 59 15 55 12.8 87 87 ENE 3 6 30 1016 10 16.0934 0 0
6:53 am 06:53 Sunny 58 14.4 55 12.8 90 90 NW 5 7 30.02 1017 10 16.0934 0 0
7:53 am 07:53 Sunny 65 18.3 56 13.3 73 73 undefined N/A 30.03 1017 10 16.0934 0 0
8:53 am 08:53 Sunny 69 20.6 58 14.4 68 68 WNW 8 13 30.04 1017 10 16.0934 0 0
9:53 am 09:53 Sunny 76 24.4 57 13.9 52 52 NW 6 9 30.02 1017 10 16.0934 0 0
10:53 am 10:53 Sunny 84 28.9 57 13.9 40 40 W 6 9 30.01 1016 10 16.0934 0 0
11:53 am 11:53 Sunny 91 32.8 55 12.8 30 30 VRB 6 9 29.98 1015 10 16.0934 0 0
12:53 pm 12:53 Sunny 95 35 50 10 22 22 VRB 3 6 29.96 1014 10 16.0934 0 0
1:53 pm 13:53 Sunny 97 36.1 51 10.6 21 21 SW 9 15 29.93 1014 10 16.0934 0 0
2:53 pm 14:53 Sunny 95 35 55 12.8 26 26 E 12 19 29.94 1014 10 16.0934 0 0
3:53 pm 15:53 Sunny 96 35.6 53 11.7 23 23 undefined N/A 29.93 1014 10 16.0934 0.001 0.001
4:53 pm 16:53 Sunny 96 35.6 53 11.7 23 23 ESE 14 22 29.93 1013 10 16.0934 0 0
5:53 pm 17:53 Sunny 91 32.8 55 12.8 30 30 E 9 15 29.94 1014 10 16.0934 0 0
6:53 pm 18:53 Sunny 86 30 54 12.2 33 33 undefined N/A 29.95 1014 10 16.0934 0 0
7:53 pm 19:53 Clear 78 25.6 58 14.4 50 50 E 5 7 29.95 1014 10 16.0934 0 0
8:53 pm 20:53 Clear 73 22.8 55 12.8 53 53 E 6 9 29.96 1015 10 16.0934 0 0
9:53 pm 21:53 Clear 74 23.3 54 12.2 50 50 ENE 6 9 29.95 1014 10 16.0934 0 0
10:53 pm 22:53 Clear 74 23.3 54 12.2 50 50 NNE 5 7 29.95 1014 10 16.0934 0 0
11:53 pm 23:53 Clear 71 21.7 56 13.3 59 59 WNW 5 7 29.94 1014 10 16.0934 0 0

Powered by AerisWeather